| time (UTC) | temp F | wind direction | speed MPH | gust MPH | rain 1hr in | rain 24hr in | rain mn in | humidity % | barometer mb |
| 20260504081811 | 58 | 242 | 2.0 | 4.0 | 0.00 | 0.00 | 0.00 | 82 | 1014.1 |
| 20260504081304 | 58 | 229 | 2.0 | 4.0 | 0.00 | 0.00 | 0.00 | 81 | 1014.1 |
| 20260504080757 | 58 | 231 | 2.0 | 3.0 | 0.00 | 0.00 | 0.00 | 81 | 1014.5 |
| 20260504080249 | 58 | 274 | 1.0 | 3.0 | 0.00 | 0.00 | 0.00 | 80 | 1014.5 |
| 20260504070122 | 58 | 276 | 1.0 | 8.0 | 0.00 | 0.00 | 0.00 | 79 | 1014.1 |
| 20260504050334 | 59 | 260 | 7.0 | 9.0 | 0.00 | 0.00 | 0.00 | 77 | 1014.1 |
| 20260504045828 | 59 | 275 | 3.0 | 9.0 | 0.00 | 0.00 | 0.00 | 76 | 1013.4 |
| 20260504045320 | 59 | 285 | 3.0 | 9.0 | 0.00 | 0.00 | 0.00 | 76 | 1013.8 |
| 20260504044813 | 59 | 277 | 5.0 | 9.0 | 0.00 | 0.00 | 0.00 | 76 | 1013.8 |
| 20260504044306 | 59 | 276 | 3.0 | 8.0 | 0.00 | 0.00 | 0.00 | 76 | 1013.8 |
| 20260504043759 | 59 | 255 | 3.0 | 10.0 | 0.00 | 0.00 | 0.00 | 76 | 1013.8 |
| 20260504043252 | 59 | 200 | 6.0 | 10.0 | 0.00 | 0.00 | 0.00 | 76 | 1013.8 |
| 20260504042744 | 59 | 227 | 8.0 | 10.0 | 0.00 | 0.00 | 0.00 | 76 | 1013.4 |
| 20260504042237 | 59 | 242 | 6.0 | 8.0 | 0.00 | 0.00 | 0.00 | 76 | 1013.8 |
| 20260504041730 | 59 | 257 | 3.0 | 8.0 | 0.00 | 0.00 | 0.00 | 77 | 1013.4 |
| 20260504041223 | 59 | 228 | 5.0 | 8.0 | 0.00 | 0.00 | 0.00 | 77 | 1013.4 |
| 20260504035700 | 59 | 198 | 4.0 | 9.0 | 0.00 | 0.00 | 0.00 | 78 | 1013.4 |
| 20260504035153 | 59 | 227 | 3.0 | 9.0 | 0.00 | 0.00 | 0.00 | 79 | 1013.1 |
| 20260504034140 | 59 | 200 | 6.0 | 9.0 | 0.00 | 0.00 | 0.00 | 79 | 1013.1 |
| 20260504033631 | 59 | 219 | 6.0 | 10.0 | 0.00 | 0.00 | 0.00 | 79 | 1013.1 |
| 20260504033124 | 59 | 228 | 7.0 | 10.0 | 0.00 | 0.00 | 0.00 | 79 | 1013.1 |
| 20260504032109 | 59 | 251 | 4.0 | 7.0 | 0.00 | 0.00 | 0.00 | 79 | 1013.1 |
| 20260504031055 | 59 | 238 | 5.0 | 6.0 | 0.00 | 0.00 | 0.00 | 79 | 1012.8 |
| 20260504030548 | 59 | 207 | 4.0 | 8.0 | 0.00 | 0.00 | 0.00 | 78 | 1012.8 |
| 20260504030041 | 59 | 255 | 2.0 | 8.0 | 0.00 | 0.00 | 0.00 | 78 | 1012.8 |
| 20260504025534 | 59 | 218 | 5.0 | 8.0 | 0.00 | 0.00 | 0.00 | 78 | 1012.8 |
| 20260504025025 | 59 | 249 | 2.0 | 10.0 | 0.00 | 0.00 | 0.00 | 78 | 1012.4 |
| 20260504024518 | 59 | 269 | 4.0 | 11.0 | 0.00 | 0.00 | 0.00 | 78 | 1012.8 |
| 20260504024011 | 59 | 228 | 5.0 | 11.0 | 0.00 | 0.00 | 0.00 | 78 | 1012.4 |
| 20260504023504 | 59 | 250 | 5.0 | 16.0 | 0.00 | 0.00 | 0.00 | 77 | 1012.8 |
| 20260504022957 | 59 | 247 | 9.0 | 16.0 | 0.00 | 0.00 | 0.00 | 77 | 1012.4 |
| 20260504022450 | 59 | 260 | 5.0 | 14.0 | 0.00 | 0.00 | 0.00 | 76 | 1012.4 |
| 20260504021942 | 59 | 248 | 8.0 | 14.0 | 0.00 | 0.00 | 0.00 | 76 | 1012.4 |
| 20260504021435 | 59 | 223 | 8.0 | 13.0 | 0.00 | 0.00 | 0.00 | 76 | 1012.4 |
| 20260504020928 | 60 | 215 | 11.0 | 13.0 | 0.00 | 0.00 | 0.00 | 75 | 1012.4 |
| 20260504020420 | 60 | 250 | 6.0 | 11.0 | 0.00 | 0.00 | 0.00 | 74 | 1012.4 |
| 20260504015912 | 60 | 254 | 4.0 | 11.0 | 0.00 | 0.00 | 0.00 | 75 | 1012.4 |
| 20260504015405 | 60 | 211 | 9.0 | 11.0 | 0.00 | 0.00 | 0.00 | 74 | 1012.4 |
| 20260504014858 | 59 | 181 | 6.0 | 11.0 | 0.00 | 0.00 | 0.00 | 75 | 1012.4 |
| 20260504014351 | 60 | 243 | 6.0 | 16.0 | 0.00 | 0.00 | 0.00 | 75 | 1012.4 |
| 20260504013844 | 59 | 203 | 8.0 | 16.0 | 0.00 | 0.00 | 0.00 | 76 | 1012.1 |
| 20260504013336 | 59 | 216 | 11.0 | 15.0 | 0.00 | 0.00 | 0.00 | 76 | 1012.4 |
| 20260504012829 | 60 | 309 | 6.0 | 15.0 | 0.00 | 0.00 | 0.00 | 75 | 1012.1 |
| 20260504012321 | 60 | 223 | 10.0 | 15.0 | 0.00 | 0.00 | 0.00 | 75 | 1012.4 |
| 20260504011814 | 60 | 254 | 8.0 | 14.0 | 0.00 | 0.00 | 0.00 | 74 | 1012.4 |
| 20260504011307 | 60 | 235 | 12.0 | 14.0 | 0.00 | 0.00 | 0.00 | 72 | 1012.4 |
| 20260504010800 | 60 | 235 | 7.0 | 13.0 | 0.00 | 0.00 | 0.00 | 73 | 1012.1 |
| 20260504010253 | 60 | 253 | 9.0 | 13.0 | 0.00 | 0.00 | 0.00 | 73 | 1012.1 |
| 20260504005238 | 60 | 244 | 9.0 | 13.0 | 0.00 | 0.00 | 0.00 | 72 | 1012.1 |
| 20260504004731 | 61 | 246 | 9.0 | 13.0 | 0.00 | 0.00 | 0.00 | 70 | 1012.1 |
| 20260504004224 | 61 | 280 | 4.0 | 14.0 | 0.00 | 0.00 | 0.00 | 71 | 1012.1 |
| 20260504003717 | 61 | 244 | 9.0 | 14.0 | 0.00 | 0.00 | 0.00 | 70 | 1012.1 |
| 20260504003209 | 61 | 231 | 6.0 | 16.0 | 0.00 | 0.00 | 0.00 | 70 | 1012.1 |
| 20260504002702 | 61 | 241 | 7.0 | 16.0 | 0.00 | 0.00 | 0.00 | 69 | 1011.8 |
| 20260504002155 | 61 | 245 | 6.0 | 11.0 | 0.00 | 0.00 | 0.00 | 67 | 1012.1 |
| 20260504001648 | 61 | 249 | 6.0 | 13.0 | 0.00 | 0.00 | 0.00 | 68 | 1012.1 |
| 20260504000633 | 61 | 264 | 9.0 | 13.0 | 0.00 | 0.00 | 0.00 | 69 | 1012.1 |
| 20260504000125 | 61 | 264 | 6.0 | 11.0 | 0.00 | 0.00 | 0.00 | 71 | 1011.8 |
| 20260503235618 | 60 | 215 | 7.0 | 16.0 | 0.00 | 0.00 | 0.00 | 72 | 1011.8 |
| 20260503235111 | 60 | 231 | 12.0 | 16.0 | 0.00 | 0.00 | 0.00 | 72 | 1011.8 |
| 20260503234604 | 61 | 237 | 9.0 | 16.0 | 0.00 | 0.00 | 0.00 | 71 | 1012.1 |
| 20260503234057 | 61 | 236 | 9.0 | 13.0 | 0.00 | 0.00 | 0.00 | 73 | 1011.8 |
| 20260503233549 | 61 | 262 | 7.0 | 14.0 | 0.00 | 0.00 | 0.00 | 74 | 1011.8 |
| 20260503233041 | 61 | 218 | 10.0 | 16.0 | 0.00 | 0.00 | 0.00 | 73 | 1011.8 |
| 20260503232535 | 61 | 267 | 10.0 | 16.0 | 0.00 | 0.00 | 0.00 | 73 | 1012.1 |
| 20260503231519 | 62 | 283 | 7.0 | 11.0 | 0.00 | 0.00 | 0.00 | 70 | 1012.1 |
| 20260503231012 | 62 | 270 | 9.0 | 14.0 | 0.00 | 0.00 | 0.00 | 71 | 1012.1 |
| 20260503230505 | 62 | 273 | 6.0 | 14.0 | 0.00 | 0.00 | 0.00 | 70 | 1012.1 |
| 20260503225959 | 62 | 258 | 7.0 | 16.0 | 0.00 | 0.00 | 0.00 | 69 | 1012.4 |
| 20260503225450 | 63 | 232 | 13.0 | 16.0 | 0.00 | 0.00 | 0.00 | 67 | 1012.1 |
| 20260503224943 | 63 | 222 | 6.0 | 13.0 | 0.00 | 0.00 | 0.00 | 67 | 1012.1 |
| 20260503223929 | 63 | 229 | 9.0 | 14.0 | 0.00 | 0.00 | 0.00 | 66 | 1012.4 |
| 20260503223422 | 63 | 224 | 7.0 | 14.0 | 0.00 | 0.00 | 0.00 | 65 | 1012.4 |
| 20260503222914 | 63 | 236 | 11.0 | 14.0 | 0.00 | 0.00 | 0.00 | 64 | 1012.4 |
| 20260503222407 | 63 | 235 | 6.0 | 14.0 | 0.00 | 0.00 | 0.00 | 66 | 1012.4 |
| 20260503221900 | 63 | 236 | 4.0 | 13.0 | 0.00 | 0.00 | 0.00 | 68 | 1012.4 |
| 20260503221353 | 63 | 249 | 11.0 | 15.0 | 0.00 | 0.00 | 0.00 | 66 | 1012.8 |
| 20260503220846 | 62 | 230 | 5.0 | 15.0 | 0.00 | 0.00 | 0.00 | 67 | 1012.8 |
| 20260503220338 | 62 | 232 | 5.0 | 14.0 | 0.00 | 0.00 | 0.00 | 65 | 1012.8 |
| 20260503215830 | 62 | 238 | 9.0 | 15.0 | 0.00 | 0.00 | 0.00 | 66 | 1012.8 |
| 20260503215323 | 63 | 207 | 8.0 | 15.0 | 0.00 | 0.00 | 0.00 | 66 | 1012.8 |
| 20260503214309 | 63 | 213 | 11.0 | 15.0 | 0.00 | 0.00 | 0.00 | 64 | 1012.8 |
| 20260503213801 | 64 | 201 | 12.0 | 15.0 | 0.00 | 0.00 | 0.00 | 61 | 1013.1 |
| 20260503213254 | 63 | 256 | 4.0 | 15.0 | 0.00 | 0.00 | 0.00 | 63 | 1012.8 |
| 20260503212747 | 63 | 266 | 7.0 | 15.0 | 0.00 | 0.00 | 0.00 | 61 | 1012.8 |
| 20260503212240 | 63 | 214 | 10.0 | 13.0 | 0.00 | 0.00 | 0.00 | 63 | 1012.8 |
| 20260503211225 | 63 | 287 | 9.0 | 16.0 | 0.00 | 0.00 | 0.00 | 61 | 1012.8 |
| 20260503210718 | 63 | 229 | 12.0 | 15.0 | 0.00 | 0.00 | 0.00 | 61 | 1013.1 |
| 20260503210210 | 64 | 216 | 9.0 | 15.0 | 0.00 | 0.00 | 0.00 | 64 | 1013.1 |
| 20260503205703 | 62 | 64 | 4.0 | 16.0 | 0.00 | 0.00 | 0.00 | 64 | 1012.8 |
| 20260503204649 | 62 | 245 | 9.0 | 15.0 | 0.00 | 0.00 | 0.00 | 64 | 1012.8 |
| 20260503204141 | 63 | 252 | 7.0 | 15.0 | 0.00 | 0.00 | 0.00 | 61 | 1013.1 |
| 20260503203127 | 64 | 252 | 9.0 | 13.0 | 0.00 | 0.00 | 0.00 | 64 | 1012.8 |
| 20260503202619 | 63 | 286 | 6.0 | 13.0 | 0.00 | 0.00 | 0.00 | 63 | 1012.8 |
| 20260503202112 | 64 | 250 | 11.0 | 13.0 | 0.00 | 0.00 | 0.00 | 62 | 1013.1 |
| 20260503201604 | 63 | 232 | 8.0 | 14.0 | 0.00 | 0.00 | 0.00 | 63 | 1013.1 |
| 20260503201057 | 64 | 190 | 5.0 | 14.0 | 0.00 | 0.00 | 0.00 | 62 | 1013.1 |
| 20260503200043 | 63 | 233 | 6.0 | 14.0 | 0.00 | 0.00 | 0.00 | 62 | 1013.1 |
| 20260503195535 | 64 | 261 | 5.0 | 11.0 | 0.00 | 0.00 | 0.00 | 60 | 1013.1 |
| 20260503193506 | 63 | 215 | 6.0 | 10.0 | 0.00 | 0.00 | 0.00 | 63 | 1013.4 |
| 20260503192959 | 63 | 187 | 6.0 | 13.0 | 0.00 | 0.00 | 0.00 | 61 | 1013.4 |
| 20260503192452 | 64 | 253 | 8.0 | 14.0 | 0.00 | 0.00 | 0.00 | 63 | 1013.1 |
| 20260503191438 | 64 | 267 | 5.0 | 14.0 | 0.00 | 0.00 | 0.00 | 62 | 1013.4 |
| 20260503190930 | 64 | 206 | 5.0 | 13.0 | 0.00 | 0.00 | 0.00 | 61 | 1013.4 |
| 20260503190423 | 64 | 233 | 6.0 | 13.0 | 0.00 | 0.00 | 0.00 | 61 | 1013.4 |
| 20260503185408 | 63 | 195 | 4.0 | 14.0 | 0.00 | 0.00 | 0.00 | 63 | 1013.4 |
| 20260503184902 | 63 | 230 | 12.0 | 14.0 | 0.00 | 0.00 | 0.00 | 62 | 1013.4 |
| 20260503184354 | 63 | 216 | 4.0 | 11.0 | 0.00 | 0.00 | 0.00 | 63 | 1013.4 |
| 20260503183847 | 64 | 243 | 4.0 | 10.0 | 0.00 | 0.00 | 0.00 | 62 | 1013.4 |
| 20260503183340 | 64 | 204 | 3.0 | 8.0 | 0.00 | 0.00 | 0.00 | 61 | 1013.4 |
| 20260503182833 | 63 | 181 | 5.0 | 8.0 | 0.00 | 0.00 | 0.00 | 63 | 1013.4 |
| 20260503182325 | 63 | 267 | 0.0 | 9.0 | 0.00 | 0.00 | 0.00 | 65 | 1013.4 |
| 20260503181818 | 63 | 264 | 3.0 | 9.0 | 0.00 | 0.00 | 0.00 | 63 | 1013.4 |
| 20260503181310 | 62 | 263 | 1.0 | 9.0 | 0.00 | 0.00 | 0.00 | 66 | 1013.4 |
| 20260503180803 | 62 | 249 | 5.0 | 9.0 | 0.00 | 0.00 | 0.00 | 66 | 1013.4 |
| 20260503180256 | 62 | 311 | 4.0 | 8.0 | 0.00 | 0.00 | 0.00 | 67 | 1013.4 |
| 20260503175241 | 61 | 292 | 4.0 | 10.0 | 0.00 | 0.00 | 0.00 | 69 | 1013.8 |
| 20260503174734 | 61 | 241 | 7.0 | 10.0 | 0.00 | 0.00 | 0.00 | 70 | 1013.8 |
| 20260503174226 | 61 | 250 | 7.0 | 10.0 | 0.00 | 0.00 | 0.00 | 70 | 1013.8 |
| 20260503173719 | 61 | 226 | 6.0 | 10.0 | 0.00 | 0.00 | 0.00 | 71 | 1013.8 |
| 20260503172705 | 60 | 219 | 7.0 | 10.0 | 0.00 | 0.00 | 0.00 | 73 | 1013.8 |
| 20260503172158 | 60 | 253 | 8.0 | 10.0 | 0.00 | 0.00 | 0.00 | 73 | 1013.8 |
| 20260503170636 | 60 | 240 | 5.0 | 9.0 | 0.00 | 0.00 | 0.00 | 74 | 1013.4 |
| 20260503170129 | 60 | 261 | 6.0 | 9.0 | 0.00 | 0.00 | 0.00 | 74 | 1013.4 |
| 20260503150849 | 59 | 226 | 4.0 | 7.0 | 0.00 | 0.00 | 0.00 | 78 | 1012.8 |
| 20260503150341 | 59 | 275 | 2.0 | 7.0 | 0.00 | 0.00 | 0.00 | 79 | 1012.8 |
| 20260503140214 | 58 | 232 | 1.0 | 2.0 | 0.00 | 0.00 | 0.00 | 83 | 1011.8 |
| 20260503131101 | 58 | 323 | 0.0 | 2.0 | 0.00 | 0.00 | 0.00 | 86 | 1011.4 |
| 20260503130554 | 58 | 307 | 1.0 | 3.0 | 0.00 | 0.00 | 0.00 | 86 | 1011.8 |
| 20260503110807 | 59 | 267 | 0.0 | 1.0 | 0.00 | 0.00 | 0.00 | 80 | 1011.8 |
| 20260503110300 | 59 | 267 | 0.0 | 2.0 | 0.00 | 0.00 | 0.00 | 80 | 1011.8 |
| 20260503100133 | 59 | 279 | 0.0 | 3.0 | 0.00 | 0.00 | 0.00 | 83 | 1011.8 |